This is the latest recevied weather packets stored in our database for station/object KD9JJA. If no packets are shown the sender has not sent any weather packets the latest 10 day(s).
| Time | Temp. | Humidity | Pressure | Rain* | Wind** | Luminosity | Snow |
|---|---|---|---|---|---|---|---|
| 1777816255 | 10.56° C | 58% | 1021.1 hPa | 0 mm | - | 192 W/m² | - |
| 1777815953 | 10.56° C | 61% | 1021.1 hPa | 0 mm | - | 88 W/m² | - |
| 1777815650 | 10° C | 67% | 1021.1 hPa | 0 mm | - | 74 W/m² | - |
| 1777815347 | 10° C | 63% | 1021 hPa | 0 mm | - | 129 W/m² | - |
| 1777815044 | 9.44° C | 67% | 1021.3 hPa | 0 mm | - | 365 W/m² | - |
| 1777814740 | 8.89° C | 68% | 1021.3 hPa | 0 mm | - | 144 W/m² | - |
| 1777814437 | 8.89° C | 69% | 1021.3 hPa | 0 mm | - | 46 W/m² | - |
| 1777814134 | 8.33° C | 67% | 1021.3 hPa | 0 mm | - | 31 W/m² | - |
| 1777813831 | 8.33° C | 67% | 1021.3 hPa | 0 mm | - | 33 W/m² | - |
| 1777813528 | 8.33° C | 69% | 1021.5 hPa | 0 mm | - | 39 W/m² | - |
| 1777813227 | 7.78° C | 70% | 1021.3 hPa | 0 mm | - | 32 W/m² | - |
| 1777812924 | 7.78° C | 71% | 1021.6 hPa | 0 mm | - | 70 W/m² | - |
| 1777812621 | 7.22° C | 71% | 1021.6 hPa | 0 mm | - | 30 W/m² | - |
| 1777812317 | 7.22° C | 76% | 1021.4 hPa | 0 mm | - | 26 W/m² | - |
| 1777812015 | 7.22° C | 72% | 1021.5 hPa | 0 mm | - | 24 W/m² | - |
| 1777811714 | 6.67° C | 75% | 1021.4 hPa | 0 mm | - | 30 W/m² | - |
| 1777811410 | 6.67° C | 76% | 1021.5 hPa | 0 mm | - | 23 W/m² | - |
| 1777811106 | 6.67° C | 74% | 1021.1 hPa | 0 mm | - | 22 W/m² | - |
| 1777810804 | 6.11° C | 75% | 1021.3 hPa | 0 mm | - | 21 W/m² | - |
| 1777810501 | 6.11° C | 77% | 1021.3 hPa | 0 mm | - | 23 W/m² | - |
| 1777810196 | 6.11° C | 76% | 1021.3 hPa | 0 mm | - | 19 W/m² | - |
| 1777809893 | 6.11° C | 76% | 1021.3 hPa | 0 mm | - | 18 W/m² | - |
| 1777809592 | 6.11° C | 76% | 1021.4 hPa | 0 mm | - | 17 W/m² | - |
| 1777809289 | 6.11° C | 78% | 1021.1 hPa | 0 mm | - | 16 W/m² | - |
| 1777808986 | 5.56° C | 79% | 1021.1 hPa | 0 mm | - | 15 W/m² | - |
* Rain latest hour (hover to see other rain measurements)
** Current wind speed in m/s (hover to see current wind gust speed)